Weather History for Belleville, IL

Change the Weather History Date:

Wednesday, July 10, 2013

  Actual Average Record
Temperature  
Mean Temperature 80 °F -  
Max Temperature 86 °F 91 °F 108 °F (1966)
Min Temperature 74 °F 69 °F 53 °F (1963)
Cooling Degree Days 15    
Growing Degree Days 30 (Base 50)    
Moisture  
Dew Point 74 °F    
Average Humidity 85    
Maximum Humidity 100    
Minimum Humidity 69    
Precipitation  
Precipitation 0.20 in - - ()
Sea Level Pressure  
Sea Level Pressure 29.94 in    
Wind  
Wind Speed 8 mph (West)    
Max Wind Speed 28 mph    
Max Gust Speed 34 mph    
Visibility 9 miles    
Events Rain , Thunderstorm    
Averages and records for this station are not official NWS values.
T = Trace of Precipitation, MM = Missing Value Source: NWS Daily Summary

Daily Weather History Graph

Daily Weather History Graph

Search for Another Location

Airport:

Trip Planner

Search our weather history database for the weather conditions in past years. The results will help you decide how hot, cold, wet, or windy it might be!

Date:

Astronomy

Jul. 10, 2013 Rise Set
Actual Time 5:44 AM CDT 8:25 PM CDT
Civil Twilight 5:12 AM CDT 8:56 PM CDT
Nautical Twilight 4:33 AM CDT 9:35 PM CDT
Astronomical Twilight 3:49 AM CDT 10:19 PM CDT
Moon 8:02 AM CDT (7/10) 9:37 PM CDT (7/10)
Length of Visible Light 15h 43m
Length of Day
14h 41m
Waxing Crescent, 5% of the Moon is Illuminated
Jul 10
Waxing Crescent
Jul 15
First Quarter
Jul 22
Full
Jul 29
Last Quarter
Aug 6
New

Hourly Weather History & Observations

Time (CDT) Temp. Heat Index Dew Point Humidity Pressure Visibility Wind Dir Wind Speed Gust Speed Precip Events Conditions
12:58 AM 81.7 °F 89.0 °F 76.3 °F 84% 29.95 in 10.0 mi SSW 4.6 mph - N/A   Partly Cloudy
1:58 AM 80.4 °F 86.3 °F 76.1 °F 87% 29.94 in 10.0 mi SSW 4.6 mph - N/A   Clear
2:58 AM 79.3 °F - 75.9 °F 89% 29.92 in 10.0 mi South 4.6 mph - N/A   Clear
3:58 AM 77.7 °F - 75.7 °F 94% 29.91 in 10.0 mi South 5.8 mph - N/A   Clear
4:58 AM 77.9 °F - 75.6 °F 92% 29.91 in 10.0 mi South 4.6 mph - N/A   Clear
5:48 AM 78.8 °F - 75.2 °F 89% 29.90 in 10.0 mi WSW 1.2 mph - N/A Thunderstorm Light Drizzle
5:58 AM 78.6 °F - 75.2 °F 89% 29.92 in 10.0 mi West 6.9 mph - 0.00 in Rain , Thunderstorm Light Rain
6:11 AM 77.0 °F - 75.2 °F 94% 29.93 in 3.0 mi West 19.6 mph 24.2 mph N/A Rain , Thunderstorm Heavy Thunderstorms and Rain
6:16 AM 77.0 °F - 75.2 °F 94% 29.94 in 2.0 mi West 27.6 mph 29.9 mph N/A Rain , Thunderstorm Heavy Thunderstorms and Rain
6:21 AM 77.0 °F - 73.4 °F 89% 29.95 in 2.5 mi WNW 23.0 mph 34.5 mph N/A Rain , Thunderstorm Thunderstorms and Rain
6:26 AM 75.2 °F - 73.4 °F 94% 29.95 in 4.0 mi West 12.7 mph 34.5 mph N/A Rain , Thunderstorm Light Thunderstorms and Rain
6:46 AM 75.2 °F - 71.6 °F 89% 29.96 in 5.0 mi SSW 6.9 mph - N/A Rain , Thunderstorm Light Thunderstorms and Rain
6:58 AM 74.7 °F - 73.2 °F 95% 29.99 in 6.0 mi SW 13.8 mph - 0.14 in Rain , Thunderstorm Light Thunderstorms and Rain
6:59 AM 75.2 °F - 73.4 °F 94% 29.99 in 10.0 mi SW 13.8 mph - N/A Rain , Thunderstorm Light Rain
7:09 AM 75.2 °F - 75.2 °F 100% 30.02 in 10.0 mi WSW 15.0 mph 21.9 mph N/A Rain , Thunderstorm Light Rain
7:14 AM 75.2 °F - 73.4 °F 94% 30.02 in 10.0 mi West 9.2 mph - N/A Rain , Thunderstorm Light Rain
7:34 AM 75.2 °F - 73.4 °F 94% 29.97 in 10.0 mi SW 15.0 mph 20.7 mph N/A Rain Light Rain
7:44 AM 75.2 °F - 73.4 °F 94% 29.97 in 10.0 mi SW 16.1 mph - N/A Rain , Thunderstorm Light Rain
7:57 AM 75.2 °F - 73.4 °F 94% 29.95 in 10.0 mi SW 16.1 mph 24.2 mph N/A   Partly Cloudy
7:58 AM 74.5 °F - 73.0 °F 95% 29.95 in 10.0 mi SW 16.1 mph 24.2 mph 0.06 in   Partly Cloudy
8:58 AM 75.7 °F - 72.7 °F 90% 29.96 in 10.0 mi WSW 9.2 mph - 0.00 in   Partly Cloudy
9:56 AM 77.0 °F - 71.6 °F 83% 30.00 in 10.0 mi WNW 11.5 mph - N/A   Partly Cloudy
10:56 AM 77.0 °F - 69.8 °F 78% 29.93 in 10.0 mi West 11.5 mph 21.9 mph N/A   Clear
11:04 AM 77.0 °F - 69.8 °F 78% 29.92 in 10.0 mi WSW 8.1 mph - N/A Rain Light Rain
11:09 AM 77.0 °F - 69.8 °F 78% 29.92 in 10.0 mi Variable 2.3 mph - N/A Rain Light Rain
11:56 AM 75.2 °F - 71.6 °F 89% 29.97 in 10.0 mi NNE 6.9 mph - N/A   Clear
12:56 PM 78.1 °F - 72.1 °F 82% 29.97 in 10.0 mi ESE 4.6 mph - N/A   Scattered Clouds
1:55 PM 80.8 °F 85.1 °F 72.3 °F 75% 29.95 in 10.0 mi Calm Calm - N/A   Mostly Cloudy
2:58 PM 83.3 °F 89.9 °F 73.9 °F 73% 29.94 in 10.0 mi West 4.6 mph - N/A   Mostly Cloudy
3:33 PM 84.2 °F 92.3 °F 75.2 °F 74% 29.92 in 10.0 mi WNW 5.8 mph - N/A   Mostly Cloudy
3:58 PM 84.4 °F 92.4 °F 74.8 °F 73% 29.92 in 10.0 mi NW 4.6 mph - N/A   Overcast
4:18 PM 86.0 °F 95.1 °F 75.2 °F 70% 29.91 in 10.0 mi WNW 10.4 mph - N/A   Mostly Cloudy
4:58 PM 85.6 °F 94.6 °F 75.4 °F 71% 29.91 in 10.0 mi WNW 8.1 mph - N/A   Mostly Cloudy
5:58 PM 85.5 °F 95.4 °F 76.5 °F 74% 29.90 in 10.0 mi NW 10.4 mph - N/A   Scattered Clouds
6:23 PM 86.0 °F 96.9 °F 77.0 °F 74% 29.90 in 10.0 mi Variable 4.6 mph - N/A   Mostly Cloudy
6:58 PM 84.6 °F 93.5 °F 75.9 °F 75% 29.91 in 10.0 mi Variable 3.5 mph - N/A   Mostly Cloudy
7:58 PM 83.5 °F 89.1 °F 72.1 °F 69% 29.92 in 10.0 mi North 4.6 mph - N/A   Partly Cloudy
8:58 PM 79.5 °F - 70.9 °F 75% 29.94 in 10.0 mi North 2.3 mph - N/A   Clear
9:58 PM 76.3 °F - 71.1 °F 84% 29.96 in 10.0 mi NNW 1.2 mph - N/A   Clear
10:58 PM 76.3 °F - 70.5 °F 82% 29.97 in 10.0 mi NNW 2.3 mph - N/A   Partly Cloudy
11:58 PM 74.8 °F - 69.8 °F 84% 29.98 in 10.0 mi NNW 3.5 mph - N/A   Partly Cloudy